Year,Month,Day,Hour,Minute,Value (Times are PST for temperature in C)
2013,04,25,11,14,15.80
2013,04,25,11,15,15.70
2013,04,25,11,16,15.60
2013,04,25,11,17,15.60
2013,04,25,11,18,15.60
2013,04,25,11,19,15.70
2013,04,25,11,20,15.70
2013,04,25,11,21,15.70
2013,04,25,11,22,15.80
2013,04,25,11,23,15.80
2013,04,25,11,24,15.80
2013,04,25,11,25,15.90
2013,04,25,11,26,16.10
2013,04,25,11,27,16.10
2013,04,25,11,28,16.10
2013,04,25,11,29,16.10
2013,04,25,11,30,16.10
2013,04,25,11,31,16.10
2013,04,25,11,32,16.10
2013,04,25,11,33,16.10
2013,04,25,11,34,16.10
2013,04,25,11,35,16.10
2013,04,25,11,36,16.10
2013,04,25,11,37,16.20
2013,04,25,11,38,16.20
2013,04,25,11,39,16.20
2013,04,25,11,40,16.30
2013,04,25,11,41,16.40
2013,04,25,11,42,16.40
2013,04,25,11,43,16.50
2013,04,25,11,44,16.60
2013,04,25,11,45,16.60
2013,04,25,11,46,16.60
2013,04,25,11,47,16.60
2013,04,25,11,48,16.60
2013,04,25,11,49,16.60
2013,04,25,11,50,16.60
2013,04,25,11,51,16.60
2013,04,25,11,52,16.60
2013,04,25,11,53,16.70
2013,04,25,11,54,16.70
2013,04,25,11,55,16.70
2013,04,25,11,56,16.60
2013,04,25,11,57,16.60
2013,04,25,11,58,16.60
2013,04,25,11,59,16.60
2013,04,25,12,00,16.60
2013,04,25,12,01,16.40
2013,04,25,12,02,16.40
2013,04,25,12,03,16.50
2013,04,25,12,04,16.60
2013,04,25,12,05,16.70
2013,04,25,12,06,16.70
2013,04,25,12,07,16.70
2013,04,25,12,08,16.60
2013,04,25,12,09,16.60
2013,04,25,12,10,16.60
2013,04,25,12,11,16.60
2013,04,25,12,12,16.70
2013,04,25,12,13,16.80
2013,04,25,12,14,16.80
2013,04,25,12,15,16.70
2013,04,25,12,16,16.60
2013,04,25,12,17,16.60
2013,04,25,12,18,16.60
2013,04,25,12,19,16.60
2013,04,25,12,20,16.60
2013,04,25,12,21,16.60
2013,04,25,12,22,16.60
2013,04,25,12,23,16.70
2013,04,25,12,24,16.70
2013,04,25,12,25,16.70
2013,04,25,12,26,16.70
2013,04,25,12,27,16.70
2013,04,25,12,28,16.70
2013,04,25,12,29,16.80
2013,04,25,12,30,16.90
2013,04,25,12,31,16.90
2013,04,25,12,32,16.90
2013,04,25,12,33,16.90
2013,04,25,12,34,16.90
2013,04,25,12,35,17.00
2013,04,25,12,36,17.00
2013,04,25,12,37,17.10
2013,04,25,12,38,17.20
2013,04,25,12,39,17.30
2013,04,25,12,40,17.30
2013,04,25,12,41,17.30
2013,04,25,12,42,17.30
2013,04,25,12,43,17.40
2013,04,25,12,44,17.40
2013,04,25,12,45,17.40
2013,04,25,12,46,17.40
2013,04,25,12,47,17.40
2013,04,25,12,48,17.50
2013,04,25,12,49,17.50
2013,04,25,12,50,17.50
2013,04,25,12,51,17.50
2013,04,25,12,52,17.50
2013,04,25,12,53,17.50
2013,04,25,12,54,17.50
2013,04,25,12,55,17.50
2013,04,25,12,56,17.50
2013,04,25,12,57,17.50
2013,04,25,12,58,17.50
2013,04,25,12,59,17.50
2013,04,25,13,00,17.50
2013,04,25,13,01,17.40
2013,04,25,13,02,17.40
2013,04,25,13,03,17.30
2013,04,25,13,04,17.20
2013,04,25,13,05,17.20
2013,04,25,13,06,17.20
2013,04,25,13,07,17.20
2013,04,25,13,08,17.20
2013,04,25,13,09,17.20
2013,04,25,13,10,17.10
2013,04,25,13,11,17.10
2013,04,25,13,12,17.10
2013,04,25,13,13,17.10
2013,04,25,13,14,17.20
2013,04,25,13,15,17.20
2013,04,25,13,16,17.20
2013,04,25,13,17,17.30
2013,04,25,13,18,17.30
2013,04,25,13,19,17.30
2013,04,25,13,20,17.40
2013,04,25,13,21,17.40
2013,04,25,13,22,17.40
2013,04,25,13,23,17.50
2013,04,25,13,24,17.60
2013,04,25,13,25,17.60
2013,04,25,13,26,17.70
2013,04,25,13,27,17.70
2013,04,25,13,28,17.80
2013,04,25,13,29,17.90
2013,04,25,13,30,18.10
2013,04,25,13,31,18.20
2013,04,25,13,32,18.20
2013,04,25,13,33,18.20
2013,04,25,13,34,18.30
2013,04,25,13,35,18.30
2013,04,25,13,36,18.30
2013,04,25,13,37,18.40
2013,04,25,13,38,18.40
2013,04,25,13,39,18.30
2013,04,25,13,40,18.20
2013,04,25,13,41,18.20
2013,04,25,13,42,18.20
2013,04,25,13,43,18.00
2013,04,25,13,44,17.90
2013,04,25,13,45,17.90
2013,04,25,13,46,17.90
2013,04,25,13,47,17.90
2013,04,25,13,48,17.90
2013,04,25,13,49,17.90
2013,04,25,13,50,17.90
2013,04,25,13,51,17.90
2013,04,25,13,52,17.80
2013,04,25,13,53,17.80
2013,04,25,13,54,17.80
2013,04,25,13,55,17.90
2013,04,25,13,56,17.90
2013,04,25,13,57,17.90
2013,04,25,13,58,17.90
2013,04,25,13,59,17.90
2013,04,25,14,00,17.90
2013,04,25,14,01,17.90
2013,04,25,14,02,17.80
2013,04,25,14,03,17.70
2013,04,25,14,04,17.50
2013,04,25,14,05,17.50
2013,04,25,14,06,17.30
2013,04,25,14,07,17.30
2013,04,25,14,08,17.30
2013,04,25,14,09,17.40
2013,04,25,14,10,17.40
2013,04,25,14,11,17.50
2013,04,25,14,12,17.60
2013,04,25,14,13,17.60
2013,04,25,14,14,17.60
2013,04,25,14,15,17.70
2013,04,25,14,16,17.70
2013,04,25,14,17,17.80
2013,04,25,14,18,17.80
2013,04,25,14,19,17.80
2013,04,25,14,20,17.80
2013,04,25,14,21,17.70
2013,04,25,14,22,17.80
2013,04,25,14,23,17.80
2013,04,25,14,24,17.80
2013,04,25,14,25,17.90
2013,04,25,14,26,18.00
2013,04,25,14,27,18.10
2013,04,25,14,28,18.10
2013,04,25,14,29,18.20
2013,04,25,14,30,18.20
2013,04,25,14,31,18.20
2013,04,25,14,32,18.10
2013,04,25,14,33,18.10
2013,04,25,14,34,18.10
2013,04,25,14,35,18.10
2013,04,25,14,36,18.10
2013,04,25,14,37,18.10
2013,04,25,14,38,18.10
2013,04,25,14,39,18.10
2013,04,25,14,40,18.20
2013,04,25,14,41,18.20
2013,04,25,14,42,18.20
2013,04,25,14,43,18.20
2013,04,25,14,44,18.30
2013,04,25,14,45,18.50
2013,04,25,14,46,18.50
2013,04,25,14,47,18.60
2013,04,25,14,48,18.60
2013,04,25,14,49,18.50
2013,04,25,14,50,18.50
2013,04,25,14,51,18.40
2013,04,25,14,52,18.30
2013,04,25,14,53,18.30
2013,04,25,14,54,18.20
2013,04,25,14,55,18.20
2013,04,25,14,56,18.20
2013,04,25,14,57,18.20
2013,04,25,14,58,18.00
2013,04,25,14,59,17.90
2013,04,25,15,00,17.90
2013,04,25,15,01,17.90
2013,04,25,15,02,17.80
2013,04,25,15,03,17.80
2013,04,25,15,04,17.90
2013,04,25,15,05,17.90
2013,04,25,15,06,17.90
2013,04,25,15,07,17.90
2013,04,25,15,08,18.00
2013,04,25,15,09,18.10
2013,04,25,15,10,18.10
2013,04,25,15,11,18.10
2013,04,25,15,12,18.00
2013,04,25,15,13,17.90
2013,04,25,15,14,17.90
2013,04,25,15,15,17.90
2013,04,25,15,16,18.00
2013,04,25,15,17,18.10
2013,04,25,15,18,18.10
2013,04,25,15,19,18.10
2013,04,25,15,20,18.20
2013,04,25,15,21,18.20
2013,04,25,15,22,18.20
2013,04,25,15,23,18.30
2013,04,25,15,24,18.30
2013,04,25,15,25,18.30
2013,04,25,15,26,18.30
2013,04,25,15,27,18.40
2013,04,25,15,28,18.40
2013,04,25,15,29,18.40
2013,04,25,15,30,18.40
2013,04,25,15,31,18.30
2013,04,25,15,32,18.30
2013,04,25,15,33,18.30
2013,04,25,15,34,18.30
2013,04,25,15,35,18.30
2013,04,25,15,36,18.20
2013,04,25,15,37,18.20
2013,04,25,15,38,18.20
2013,04,25,15,39,18.20
2013,04,25,15,40,18.20
2013,04,25,15,41,18.20
2013,04,25,15,42,18.20
2013,04,25,15,43,18.10
2013,04,25,15,44,18.10
2013,04,25,15,45,18.20
2013,04,25,15,46,18.20
2013,04,25,15,47,18.20
2013,04,25,15,48,18.10
2013,04,25,15,49,18.00
2013,04,25,15,50,17.90
2013,04,25,15,51,17.90
2013,04,25,15,52,17.70
2013,04,25,15,53,17.60
2013,04,25,15,54,17.60
2013,04,25,15,55,17.50
2013,04,25,15,56,17.50
2013,04,25,15,57,17.50
2013,04,25,15,58,17.40
2013,04,25,15,59,17.40
2013,04,25,16,00,17.30
2013,04,25,16,01,17.30
2013,04,25,16,02,17.30
2013,04,25,16,03,17.20
2013,04,25,16,04,17.10
2013,04,25,16,05,17.00
2013,04,25,16,06,17.00
2013,04,25,16,07,17.00
2013,04,25,16,08,17.00
2013,04,25,16,09,17.00
2013,04,25,16,10,16.90
2013,04,25,16,11,16.90
2013,04,25,16,12,16.90
2013,04,25,16,13,16.80
2013,04,25,16,14,16.70
2013,04,25,16,15,16.70
2013,04,25,16,16,16.70
2013,04,25,16,17,16.70
2013,04,25,16,18,16.70
2013,04,25,16,19,16.70
2013,04,25,16,20,16.70
2013,04,25,16,21,16.70
2013,04,25,16,22,16.60
2013,04,25,16,23,16.60
2013,04,25,16,24,16.40
2013,04,25,16,25,16.40
2013,04,25,16,26,16.40
2013,04,25,16,27,16.40
2013,04,25,16,28,16.40
2013,04,25,16,29,16.40
2013,04,25,16,30,16.30
2013,04,25,16,31,16.30
2013,04,25,16,32,16.20
2013,04,25,16,33,16.20
2013,04,25,16,34,16.20
2013,04,25,16,35,16.30
2013,04,25,16,36,16.30
2013,04,25,16,37,16.20
2013,04,25,16,38,16.20
2013,04,25,16,39,16.20
2013,04,25,16,40,16.20
2013,04,25,16,41,16.20
2013,04,25,16,42,16.20
2013,04,25,16,43,16.20
2013,04,25,16,44,16.20
2013,04,25,16,45,16.20
2013,04,25,16,46,16.20
2013,04,25,16,47,16.20
2013,04,25,16,48,16.20
2013,04,25,16,49,16.20
2013,04,25,16,50,16.20
2013,04,25,16,51,16.20
2013,04,25,16,52,16.20
2013,04,25,16,53,16.20
2013,04,25,16,54,16.20
2013,04,25,16,55,16.20
2013,04,25,16,56,16.20
2013,04,25,16,57,16.20
2013,04,25,16,58,16.10
2013,04,25,16,59,16.10
2013,04,25,17,00,16.10
2013,04,25,17,01,16.10
2013,04,25,17,02,16.10
2013,04,25,17,03,16.20
2013,04,25,17,04,16.20
2013,04,25,17,05,16.20
2013,04,25,17,06,16.20
2013,04,25,17,07,16.20
2013,04,25,17,08,16.30
2013,04,25,17,09,16.30
2013,04,25,17,10,16.20
2013,04,25,17,11,16.20
2013,04,25,17,12,16.20
2013,04,25,17,13,16.20
2013,04,25,17,14,16.20
2013,04,25,17,15,16.20
2013,04,25,17,16,16.20
2013,04,25,17,17,16.20
2013,04,25,17,18,16.30
2013,04,25,17,19,16.30
2013,04,25,17,20,16.30
2013,04,25,17,21,16.30
2013,04,25,17,22,16.30
2013,04,25,17,23,16.30
2013,04,25,17,24,16.30
2013,04,25,17,25,16.30
2013,04,25,17,26,16.40
2013,04,25,17,27,16.40
2013,04,25,17,28,16.40
2013,04,25,17,29,16.40
2013,04,25,17,30,16.40
2013,04,25,17,31,16.30
2013,04,25,17,32,16.30
2013,04,25,17,33,16.30
2013,04,25,17,34,16.40
2013,04,25,17,35,16.40
2013,04,25,17,36,16.40
2013,04,25,17,37,16.40
2013,04,25,17,38,16.40
2013,04,25,17,39,16.40
2013,04,25,17,40,16.40
2013,04,25,17,41,16.40
2013,04,25,17,42,16.40
2013,04,25,17,43,16.40
2013,04,25,17,44,16.40
2013,04,25,17,45,16.40
2013,04,25,17,46,16.30
2013,04,25,17,47,16.30
2013,04,25,17,48,16.30
2013,04,25,17,49,16.20
2013,04,25,17,50,16.20
2013,04,25,17,51,16.10
2013,04,25,17,52,16.20
2013,04,25,17,53,16.30
2013,04,25,17,54,16.30
2013,04,25,17,55,16.30
2013,04,25,17,56,16.30
2013,04,25,17,57,16.30
2013,04,25,17,58,16.30
2013,04,25,17,59,16.30
2013,04,25,18,00,16.30
2013,04,25,18,01,16.30
2013,04,25,18,02,16.30
2013,04,25,18,03,16.30
2013,04,25,18,04,16.30
2013,04,25,18,05,16.30
2013,04,25,18,06,16.30
2013,04,25,18,07,16.30
2013,04,25,18,08,16.30
2013,04,25,18,09,16.30
2013,04,25,18,10,16.30
2013,04,25,18,11,16.30
2013,04,25,18,12,16.30
2013,04,25,18,13,16.30
2013,04,25,18,14,16.30
2013,04,25,18,15,16.20
2013,04,25,18,16,16.20
2013,04,25,18,17,16.20
2013,04,25,18,18,16.20
2013,04,25,18,19,16.20
2013,04,25,18,20,16.20
2013,04,25,18,21,16.10
2013,04,25,18,22,16.00
2013,04,25,18,23,15.90
2013,04,25,18,24,15.90
2013,04,25,18,25,15.80
2013,04,25,18,26,15.80
2013,04,25,18,27,15.80
2013,04,25,18,28,15.80
2013,04,25,18,29,15.80
2013,04,25,18,30,15.80
2013,04,25,18,31,15.80
2013,04,25,18,32,15.80
2013,04,25,18,33,15.80
2013,04,25,18,34,15.80
2013,04,25,18,35,15.80
2013,04,25,18,36,15.80
2013,04,25,18,37,15.80
2013,04,25,18,38,15.80
2013,04,25,18,39,15.80
2013,04,25,18,40,15.80
2013,04,25,18,41,15.80
2013,04,25,18,42,15.70
2013,04,25,18,43,15.70
2013,04,25,18,44,15.70
2013,04,25,18,45,15.60
2013,04,25,18,46,15.60
2013,04,25,18,47,15.60
2013,04,25,18,48,15.50
2013,04,25,18,49,15.50
2013,04,25,18,50,15.50
2013,04,25,18,51,15.50
2013,04,25,18,52,15.40
2013,04,25,18,53,15.40
2013,04,25,18,54,15.40
2013,04,25,18,55,15.30
2013,04,25,18,56,15.30
2013,04,25,18,57,15.30
2013,04,25,18,58,15.30
2013,04,25,18,59,15.30
2013,04,25,19,00,15.20
2013,04,25,19,01,15.20
2013,04,25,19,02,15.20
2013,04,25,19,03,15.10
2013,04,25,19,04,15.10
2013,04,25,19,05,15.10
2013,04,25,19,06,15.00
2013,04,25,19,07,15.00
2013,04,25,19,08,14.90
2013,04,25,19,09,14.90
2013,04,25,19,10,14.90
2013,04,25,19,11,14.80
2013,04,25,19,12,14.80
2013,04,25,19,13,14.80
2013,04,25,19,14,14.80
2013,04,25,19,15,14.70
2013,04,25,19,16,14.70
2013,04,25,19,17,14.70
2013,04,25,19,18,14.60
2013,04,25,19,19,14.60
2013,04,25,19,20,14.60
2013,04,25,19,21,14.50
2013,04,25,19,22,14.50
2013,04,25,19,23,14.50
2013,04,25,19,24,14.40
2013,04,25,19,25,14.40
2013,04,25,19,26,14.40
2013,04,25,19,27,14.30
2013,04,25,19,28,14.30
2013,04,25,19,29,14.30
2013,04,25,19,30,14.30
2013,04,25,19,31,14.20
2013,04,25,19,32,14.20
2013,04,25,19,33,14.20
2013,04,25,19,34,14.20
2013,04,25,19,35,14.20
2013,04,25,19,36,14.20
2013,04,25,19,37,14.20
2013,04,25,19,38,14.10
2013,04,25,19,39,14.10
2013,04,25,19,40,14.10
2013,04,25,19,41,14.10
2013,04,25,19,42,14.00
2013,04,25,19,43,14.00
2013,04,25,19,44,14.00
2013,04,25,19,45,14.00
2013,04,25,19,46,13.90
2013,04,25,19,47,13.90
2013,04,25,19,48,13.90
2013,04,25,19,49,13.80
2013,04,25,19,50,13.80
2013,04,25,19,51,13.80
2013,04,25,19,52,13.70
2013,04,25,19,53,13.70
2013,04,25,19,54,13.70
2013,04,25,19,55,13.70
2013,04,25,19,56,13.60
2013,04,25,19,57,13.60
2013,04,25,19,58,13.60
2013,04,25,19,59,13.60
2013,04,25,20,00,13.60
2013,04,25,20,01,13.60
2013,04,25,20,02,13.60
2013,04,25,20,03,13.60
2013,04,25,20,04,13.60
2013,04,25,20,05,13.60
2013,04,25,20,06,13.60
2013,04,25,20,07,13.60
